| time (UTC) | temp F | wind direction | speed MPH | gust MPH | rain 1hr in | rain 24hr in | rain mn in | humidity % | barometer mb |
| 20260507134701 | 52 | 258 | 3.0 | 7.0 | 0.00 | 0.00 | 0.00 | 85 | 1016.6 |
| 20260507134202 | 52 | 195 | 4.0 | 10.0 | 0.00 | 0.00 | 0.00 | 87 | 1016.5 |
| 20260507133702 | 51 | 248 | 4.0 | 10.0 | 0.00 | 0.00 | 0.00 | 89 | 1016.6 |
| 20260507133202 | 50 | 176 | 3.0 | 9.0 | 0.00 | 0.00 | 0.00 | 91 | 1016.5 |
| 20260507132701 | 49 | 206 | 4.0 | 7.0 | 0.00 | 0.00 | 0.00 | 93 | 1016.5 |
| 20260507132202 | 49 | 206 | 4.0 | 7.0 | 0.00 | 0.00 | 0.00 | 95 | 1016.5 |
| 20260507131703 | 48 | 237 | 2.0 | 6.0 | 0.00 | 0.00 | 0.00 | 96 | 1016.6 |
| 20260507131202 | 47 | 172 | 2.0 | 5.0 | 0.00 | 0.00 | 0.00 | 95 | 1016.6 |
| 20260507130702 | 47 | 207 | 3.0 | 5.0 | 0.00 | 0.00 | 0.00 | 96 | 1016.5 |
| 20260507130202 | 46 | 216 | 1.0 | 5.0 | 0.00 | 0.00 | 0.00 | 96 | 1016.6 |
| 20260507125202 | 45 | 224 | 2.0 | 4.0 | 0.00 | 0.00 | 0.00 | 95 | 1016.7 |
| 20260507124702 | 44 | 212 | 1.0 | 3.0 | 0.00 | 0.00 | 0.00 | 95 | 1016.6 |
| 20260507123702 | 43 | 199 | 1.0 | 3.0 | 0.00 | 0.00 | 0.00 | 95 | 1016.7 |
| 20260507122703 | 42 | 199 | 0.0 | 2.0 | 0.00 | 0.00 | 0.00 | 95 | 1016.7 |
| 20260507121702 | 40 | 199 | 0.0 | 1.0 | 0.00 | 0.00 | 0.00 | 95 | 1016.7 |
| 20260507120702 | 39 | 199 | 0.0 | 0.0 | 0.00 | 0.00 | 0.00 | 94 | 1016.6 |
| 20260507120202 | 39 | 199 | 0.0 | 0.0 | 0.00 | 0.00 | 0.00 | 94 | 1016.7 |
| 20260507115702 | 38 | 199 | 0.0 | 0.0 | 0.00 | 0.00 | 0.00 | 94 | 1016.7 |
| 20260507115202 | 38 | 199 | 0.0 | 0.0 | 0.00 | 0.00 | 0.00 | 94 | 1016.6 |
| 20260507114702 | 38 | 199 | 0.0 | 0.0 | 0.00 | 0.00 | 0.00 | 93 | 1016.6 |
| 20260507114202 | 38 | 199 | 0.0 | 0.0 | 0.00 | 0.00 | 0.00 | 93 | 1016.5 |
| 20260507113704 | 38 | 199 | 0.0 | 0.0 | 0.00 | 0.00 | 0.00 | 93 | 1016.5 |
| 20260507113202 | 38 | 199 | 0.0 | 0.0 | 0.00 | 0.00 | 0.00 | 93 | 1016.6 |
| 20260507112702 | 38 | 199 | 0.0 | 2.0 | 0.00 | 0.00 | 0.00 | 93 | 1016.5 |
| 20260507112202 | 38 | 199 | 0.0 | 2.0 | 0.00 | 0.00 | 0.00 | 93 | 1016.5 |
| 20260507111702 | 37 | 199 | 0.0 | 2.0 | 0.00 | 0.00 | 0.00 | 93 | 1016.6 |
| 20260507111202 | 37 | 199 | 1.0 | 2.0 | 0.00 | 0.00 | 0.00 | 93 | 1016.5 |
| 20260507110702 | 38 | 199 | 1.0 | 2.0 | 0.00 | 0.00 | 0.00 | 93 | 1016.5 |
| 20260507110202 | 38 | 199 | 1.0 | 2.0 | 0.00 | 0.00 | 0.00 | 93 | 1016.4 |
| 20260507105702 | 38 | 199 | 0.0 | 1.0 | 0.00 | 0.00 | 0.00 | 93 | 1016.4 |
| 20260507105202 | 38 | 199 | 0.0 | 0.0 | 0.00 | 0.00 | 0.00 | 93 | 1016.4 |
| 20260507104202 | 38 | 199 | 0.0 | 0.0 | 0.00 | 0.00 | 0.00 | 92 | 1016.3 |
| 20260507103703 | 38 | 199 | 0.0 | 1.0 | 0.00 | 0.00 | 0.00 | 92 | 1016.3 |
| 20260507103201 | 38 | 199 | 0.0 | 2.0 | 0.00 | 0.00 | 0.00 | 92 | 1016.4 |
| 20260507102702 | 38 | 199 | 0.0 | 2.0 | 0.00 | 0.00 | 0.00 | 92 | 1016.4 |
| 20260507102202 | 38 | 199 | 0.0 | 2.0 | 0.00 | 0.00 | 0.00 | 92 | 1016.4 |
| 20260507101702 | 38 | 199 | 1.0 | 2.0 | 0.00 | 0.00 | 0.00 | 92 | 1016.5 |
| 20260507100201 | 38 | 199 | 0.0 | 0.0 | 0.00 | 0.00 | 0.00 | 92 | 1016.5 |
| 20260507095202 | 38 | 199 | 0.0 | 0.0 | 0.00 | 0.00 | 0.00 | 93 | 1016.6 |
| 20260507094705 | 39 | 199 | 0.0 | 0.0 | 0.00 | 0.00 | 0.00 | 92 | 1016.6 |
| 20260507094201 | 39 | 199 | 0.0 | 0.0 | 0.00 | 0.00 | 0.00 | 92 | 1016.6 |
| 20260507093702 | 39 | 199 | 0.0 | 1.0 | 0.00 | 0.00 | 0.00 | 92 | 1016.7 |
| 20260507092702 | 39 | 199 | 0.0 | 0.0 | 0.00 | 0.00 | 0.00 | 92 | 1016.7 |
| 20260507092202 | 39 | 199 | 0.0 | 0.0 | 0.00 | 0.00 | 0.00 | 92 | 1016.7 |
| 20260507091702 | 39 | 199 | 0.0 | 0.0 | 0.00 | 0.00 | 0.00 | 93 | 1016.7 |
| 20260507091202 | 39 | 199 | 0.0 | 1.0 | 0.00 | 0.00 | 0.00 | 92 | 1016.8 |
| 20260507090202 | 40 | 199 | 1.0 | 3.0 | 0.00 | 0.00 | 0.00 | 92 | 1016.8 |
| 20260507085702 | 40 | 192 | 0.0 | 0.0 | 0.00 | 0.00 | 0.00 | 92 | 1016.7 |
| 20260507085201 | 40 | 192 | 0.0 | 1.0 | 0.00 | 0.00 | 0.00 | 93 | 1016.8 |
| 20260507084702 | 40 | 192 | 0.0 | 1.0 | 0.00 | 0.00 | 0.00 | 93 | 1016.8 |
| 20260507084202 | 40 | 192 | 0.0 | 3.0 | 0.00 | 0.00 | 0.00 | 93 | 1016.8 |
| 20260507083702 | 40 | 192 | 1.0 | 3.0 | 0.00 | 0.00 | 0.00 | 93 | 1016.7 |
| 20260507083201 | 40 | 192 | 1.0 | 3.0 | 0.00 | 0.00 | 0.00 | 93 | 1016.8 |
| 20260507082702 | 40 | 192 | 1.0 | 3.0 | 0.00 | 0.00 | 0.00 | 92 | 1016.8 |
| 20260507082202 | 40 | 192 | 1.0 | 5.0 | 0.00 | 0.00 | 0.00 | 92 | 1016.8 |
| 20260507081704 | 40 | 199 | 2.0 | 5.0 | 0.00 | 0.00 | 0.00 | 92 | 1016.8 |
| 20260507080702 | 40 | 202 | 2.0 | 4.0 | 0.00 | 0.00 | 0.00 | 92 | 1016.9 |
| 20260507075702 | 40 | 250 | 1.0 | 2.0 | 0.00 | 0.00 | 0.00 | 91 | 1016.9 |
| 20260507075203 | 40 | 333 | 0.0 | 2.0 | 0.00 | 0.00 | 0.00 | 91 | 1016.9 |
| 20260507074702 | 41 | 333 | 0.0 | 0.0 | 0.00 | 0.00 | 0.00 | 91 | 1016.9 |
| 20260507074202 | 41 | 333 | 0.0 | 0.0 | 0.00 | 0.00 | 0.00 | 91 | 1017.0 |
| 20260507073702 | 41 | 333 | 0.0 | 0.0 | 0.00 | 0.00 | 0.00 | 92 | 1017.0 |
| 20260507073202 | 41 | 333 | 0.0 | 0.0 | 0.00 | 0.00 | 0.00 | 92 | 1017.0 |
| 20260507072703 | 41 | 333 | 0.0 | 0.0 | 0.00 | 0.00 | 0.00 | 92 | 1017.0 |
| 20260507072201 | 41 | 333 | 0.0 | 0.0 | 0.00 | 0.00 | 0.00 | 92 | 1017.0 |
| 20260507071702 | 42 | 333 | 0.0 | 1.0 | 0.00 | 0.00 | 0.00 | 92 | 1017.1 |
| 20260507071202 | 42 | 333 | 0.0 | 1.0 | 0.00 | 0.00 | 0.00 | 92 | 1017.1 |
| 20260507070203 | 42 | 333 | 0.0 | 1.0 | 0.00 | 0.00 | 0.00 | 92 | 1017.3 |
| 20260507065702 | 42 | 333 | 0.0 | 0.0 | 0.00 | 0.00 | 0.00 | 92 | 1017.3 |
| 20260507065203 | 42 | 333 | 0.0 | 0.0 | 0.00 | 0.00 | 0.00 | 92 | 1017.3 |
| 20260507064202 | 42 | 333 | 0.0 | 0.0 | 0.00 | 0.00 | 0.00 | 92 | 1017.5 |
| 20260507063201 | 42 | 333 | 0.0 | 0.0 | 0.00 | 0.00 | 0.00 | 92 | 1017.4 |
| 20260507062703 | 42 | 333 | 0.0 | 0.0 | 0.00 | 0.00 | 0.00 | 92 | 1017.4 |
| 20260507061702 | 42 | 333 | 0.0 | 0.0 | 0.00 | 0.01 | 0.00 | 92 | 1017.5 |
| 20260507061202 | 42 | 333 | 0.0 | 0.0 | 0.00 | 0.01 | 0.00 | 92 | 1017.6 |
| 20260507060702 | 42 | 333 | 0.0 | 0.0 | 0.00 | 0.01 | 0.00 | 92 | 1017.5 |
| 20260507055703 | 42 | 333 | 0.0 | 0.0 | 0.00 | 0.02 | 0.00 | 92 | 1017.5 |
| 20260507055203 | 41 | 333 | 0.0 | 0.0 | 0.00 | 0.02 | 0.00 | 92 | 1017.5 |
| 20260507054703 | 41 | 333 | 0.0 | 0.0 | 0.00 | 0.02 | 0.00 | 92 | 1017.5 |
| 20260507053702 | 41 | 333 | 0.0 | 0.0 | 0.00 | 0.02 | 0.00 | 91 | 1017.6 |
| 20260507053202 | 41 | 333 | 0.0 | 0.0 | 0.00 | 0.02 | 0.00 | 91 | 1017.5 |
| 20260507052702 | 41 | 333 | 0.0 | 0.0 | 0.00 | 0.02 | 0.00 | 91 | 1017.5 |
| 20260507052202 | 41 | 333 | 0.0 | 0.0 | 0.00 | 0.02 | 0.00 | 90 | 1017.6 |
| 20260507051702 | 41 | 333 | 0.0 | 0.0 | 0.00 | 0.02 | 0.00 | 90 | 1017.5 |
| 20260507051203 | 41 | 333 | 0.0 | 0.0 | 0.00 | 0.02 | 0.00 | 89 | 1017.5 |
| 20260507050703 | 41 | 333 | 0.0 | 0.0 | 0.00 | 0.02 | 0.00 | 88 | 1017.6 |
| 20260507050201 | 41 | 333 | 0.0 | 0.0 | 0.00 | 0.02 | 0.00 | 88 | 1017.5 |
| 20260507045701 | 41 | 333 | 0.0 | 0.0 | 0.00 | 0.02 | 0.02 | 88 | 1017.5 |
| 20260507045202 | 41 | 333 | 0.0 | 0.0 | 0.00 | 0.02 | 0.02 | 87 | 1017.4 |
| 20260507044702 | 41 | 333 | 0.0 | 0.0 | 0.00 | 0.02 | 0.02 | 88 | 1017.4 |
| 20260507044203 | 41 | 333 | 0.0 | 0.0 | 0.00 | 0.02 | 0.02 | 88 | 1017.5 |
| 20260507043701 | 41 | 333 | 0.0 | 0.0 | 0.00 | 0.02 | 0.02 | 87 | 1017.6 |
| 20260507042702 | 42 | 333 | 0.0 | 0.0 | 0.00 | 0.02 | 0.02 | 87 | 1017.7 |
| 20260507041704 | 42 | 333 | 0.0 | 0.0 | 0.00 | 0.02 | 0.02 | 88 | 1017.7 |
| 20260507041202 | 42 | 333 | 0.0 | 0.0 | 0.00 | 0.02 | 0.02 | 88 | 1017.6 |
| 20260507040702 | 42 | 333 | 0.0 | 0.0 | 0.00 | 0.02 | 0.02 | 87 | 1017.4 |
| 20260507040202 | 42 | 333 | 0.0 | 0.0 | 0.00 | 0.02 | 0.02 | 87 | 1017.5 |
| 20260507035702 | 42 | 333 | 0.0 | 0.0 | 0.00 | 0.02 | 0.02 | 86 | 1017.6 |
| 20260507035202 | 42 | 333 | 0.0 | 0.0 | 0.00 | 0.02 | 0.02 | 87 | 1017.8 |
| 20260507034702 | 42 | 333 | 0.0 | 0.0 | 0.00 | 0.02 | 0.02 | 86 | 1018.1 |
| 20260507034202 | 42 | 333 | 0.0 | 0.0 | 0.00 | 0.02 | 0.02 | 85 | 1018.1 |
| 20260507033702 | 42 | 333 | 0.0 | 0.0 | 0.00 | 0.02 | 0.02 | 84 | 1017.9 |
| 20260507032702 | 42 | 333 | 0.0 | 0.0 | 0.00 | 0.02 | 0.02 | 84 | 1018.1 |
| 20260507031703 | 42 | 333 | 0.0 | 0.0 | 0.00 | 0.02 | 0.02 | 83 | 1017.7 |
| 20260507031202 | 43 | 333 | 0.0 | 0.0 | 0.00 | 0.02 | 0.02 | 82 | 1017.7 |
| 20260507030203 | 43 | 333 | 0.0 | 0.0 | 0.00 | 0.02 | 0.02 | 82 | 1017.6 |
| 20260507025202 | 43 | 333 | 0.0 | 0.0 | 0.00 | 0.02 | 0.02 | 81 | 1017.6 |
| 20260507024202 | 44 | 333 | 0.0 | 0.0 | 0.00 | 0.02 | 0.02 | 80 | 1017.5 |
| 20260507023702 | 44 | 333 | 0.0 | 0.0 | 0.00 | 0.02 | 0.02 | 80 | 1017.5 |
| 20260507023203 | 45 | 333 | 0.0 | 0.0 | 0.00 | 0.02 | 0.02 | 80 | 1017.5 |
| 20260507022702 | 45 | 333 | 0.0 | 0.0 | 0.00 | 0.02 | 0.02 | 79 | 1017.4 |
| 20260507022203 | 46 | 333 | 0.0 | 0.0 | 0.00 | 0.02 | 0.02 | 79 | 1017.4 |
| 20260507021202 | 47 | 333 | 0.0 | 0.0 | 0.00 | 0.02 | 0.02 | 77 | 1017.2 |
| 20260507020702 | 47 | 333 | 0.0 | 0.0 | 0.00 | 0.02 | 0.02 | 76 | 1017.2 |
| 20260507020203 | 48 | 333 | 0.0 | 0.0 | 0.00 | 0.02 | 0.02 | 75 | 1017.2 |
| 20260507015202 | 49 | 333 | 0.0 | 0.0 | 0.00 | 0.02 | 0.02 | 73 | 1017.0 |
| 20260507014702 | 50 | 333 | 0.0 | 2.0 | 0.00 | 0.02 | 0.02 | 72 | 1017.1 |
| 20260507014203 | 50 | 333 | 0.0 | 2.0 | 0.00 | 0.02 | 0.02 | 71 | 1017.0 |
| 20260507013202 | 52 | 333 | 1.0 | 2.0 | 0.00 | 0.02 | 0.02 | 67 | 1016.9 |
| 20260507012702 | 53 | 333 | 0.0 | 1.0 | 0.00 | 0.02 | 0.02 | 64 | 1017.0 |
| 20260507012203 | 54 | 333 | 0.0 | 1.0 | 0.00 | 0.02 | 0.02 | 61 | 1017.0 |
| 20260507011702 | 55 | 333 | 0.0 | 1.0 | 0.00 | 0.02 | 0.02 | 58 | 1017.0 |
| 20260507011202 | 55 | 333 | 0.0 | 1.0 | 0.00 | 0.02 | 0.02 | 56 | 1016.9 |
| 20260507010702 | 56 | 333 | 0.0 | 3.0 | 0.00 | 0.02 | 0.02 | 54 | 1016.9 |
| 20260507010201 | 56 | 333 | 1.0 | 3.0 | 0.00 | 0.02 | 0.02 | 51 | 1016.8 |
| 20260507005203 | 56 | 353 | 2.0 | 5.0 | 0.00 | 0.02 | 0.02 | 47 | 1016.7 |
| 20260507004202 | 57 | 344 | 3.0 | 5.0 | 0.00 | 0.02 | 0.02 | 46 | 1016.7 |
| 20260507003702 | 57 | 0 | 2.0 | 6.0 | 0.00 | 0.02 | 0.02 | 45 | 1016.8 |
| 20260507003203 | 57 | 357 | 3.0 | 11.0 | 0.00 | 0.02 | 0.02 | 44 | 1016.7 |
| 20260507002202 | 58 | 343 | 2.0 | 9.0 | 0.00 | 0.02 | 0.02 | 45 | 1016.7 |
| 20260507001702 | 58 | 348 | 4.0 | 9.0 | 0.00 | 0.02 | 0.02 | 45 | 1016.8 |
| 20260507001202 | 58 | 347 | 4.0 | 9.0 | 0.00 | 0.02 | 0.02 | 43 | 1016.8 |
| 20260507000204 | 58 | 320 | 6.0 | 11.0 | 0.00 | 0.02 | 0.02 | 41 | 1016.7 |
| 20260506235702 | 59 | 0 | 7.0 | 11.0 | 0.00 | 0.02 | 0.02 | 41 | 1016.7 |
| 20260506235201 | 59 | 336 | 5.0 | 12.0 | 0.00 | 0.02 | 0.02 | 40 | 1016.7 |
| 20260506234702 | 59 | 0 | 7.0 | 13.0 | 0.00 | 0.02 | 0.02 | 40 | 1016.7 |
| 20260506234202 | 59 | 355 | 8.0 | 13.0 | 0.00 | 0.02 | 0.02 | 41 | 1016.6 |
| 20260506233702 | 59 | 0 | 7.0 | 12.0 | 0.00 | 0.02 | 0.02 | 42 | 1016.7 |
| 20260506233202 | 60 | 331 | 7.0 | 12.0 | 0.00 | 0.02 | 0.02 | 41 | 1016.8 |
| 20260506232703 | 60 | 348 | 6.0 | 9.0 | 0.00 | 0.02 | 0.02 | 42 | 1016.7 |
| 20260506232202 | 60 | 330 | 5.0 | 12.0 | 0.00 | 0.02 | 0.02 | 42 | 1016.6 |
| 20260506231702 | 60 | 292 | 8.0 | 13.0 | 0.00 | 0.02 | 0.02 | 40 | 1016.7 |
| 20260506231202 | 60 | 313 | 7.0 | 13.0 | 0.00 | 0.02 | 0.02 | 44 | 1016.7 |
| 20260506230702 | 60 | 0 | 6.0 | 15.0 | 0.00 | 0.02 | 0.02 | 41 | 1016.7 |
| 20260506230201 | 60 | 334 | 9.0 | 15.0 | 0.00 | 0.02 | 0.02 | 41 | 1016.7 |
| 20260506225659 | 60 | 355 | 7.0 | 15.0 | 0.00 | 0.02 | 0.02 | 42 | 1016.7 |
| 20260506225158 | 60 | 323 | 6.0 | 15.0 | 0.00 | 0.02 | 0.02 | 42 | 1016.7 |
| 20260506224659 | 60 | 0 | 6.0 | 14.0 | 0.00 | 0.02 | 0.02 | 42 | 1016.6 |
| 20260506223657 | 60 | 289 | 9.0 | 14.0 | 0.00 | 0.02 | 0.02 | 43 | 1016.6 |
| 20260506223157 | 60 | 348 | 4.0 | 17.0 | 0.00 | 0.02 | 0.02 | 42 | 1016.7 |
| 20260506222655 | 60 | 0 | 5.0 | 17.0 | 0.00 | 0.02 | 0.02 | 43 | 1016.6 |
| 20260506222155 | 60 | 0 | 6.0 | 12.0 | 0.00 | 0.02 | 0.02 | 46 | 1016.6 |
| 20260506221655 | 60 | 10 | 8.0 | 14.0 | 0.00 | 0.02 | 0.02 | 42 | 1016.6 |
| 20260506221154 | 60 | 31 | 8.0 | 14.0 | 0.00 | 0.02 | 0.02 | 42 | 1016.7 |
| 20260506220654 | 60 | 354 | 9.0 | 14.0 | 0.00 | 0.02 | 0.02 | 45 | 1016.6 |
| 20260506215650 | 60 | 333 | 3.0 | 12.0 | 0.00 | 0.02 | 0.02 | 44 | 1016.7 |
| 20260506215151 | 60 | 329 | 7.0 | 15.0 | 0.00 | 0.02 | 0.02 | 42 | 1016.8 |
| 20260506214651 | 60 | 0 | 6.0 | 15.0 | 0.00 | 0.02 | 0.02 | 43 | 1016.8 |
| 20260506214149 | 61 | 0 | 10.0 | 15.0 | 0.00 | 0.02 | 0.02 | 43 | 1016.9 |
| 20260506213149 | 60 | 302 | 5.0 | 13.0 | 0.00 | 0.02 | 0.02 | 47 | 1017.0 |
| 20260506211647 | 60 | 316 | 6.0 | 13.0 | 0.00 | 0.02 | 0.02 | 45 | 1017.1 |
| 20260506211145 | 60 | 334 | 3.0 | 14.0 | 0.00 | 0.02 | 0.02 | 46 | 1017.1 |
| 20260506210645 | 60 | 350 | 5.0 | 15.0 | 0.00 | 0.02 | 0.02 | 44 | 1017.3 |
| 20260506210147 | 60 | 343 | 8.0 | 15.0 | 0.00 | 0.02 | 0.02 | 42 | 1017.3 |
| 20260506205643 | 60 | 0 | 7.0 | 13.0 | 0.00 | 0.02 | 0.02 | 45 | 1017.4 |
| 20260506205142 | 60 | 321 | 6.0 | 11.0 | 0.00 | 0.02 | 0.02 | 44 | 1017.4 |
| 20260506204643 | 60 | 0 | 7.0 | 18.0 | 0.00 | 0.02 | 0.02 | 48 | 1017.4 |
| 20260506204142 | 60 | 0 | 13.0 | 18.0 | 0.00 | 0.02 | 0.02 | 46 | 1017.5 |
| 20260506203142 | 60 | 0 | 5.0 | 13.0 | 0.00 | 0.02 | 0.02 | 45 | 1017.6 |
| 20260506202639 | 60 | 314 | 6.0 | 16.0 | 0.00 | 0.02 | 0.02 | 45 | 1017.7 |
| 20260506202139 | 60 | 0 | 9.0 | 20.0 | 0.00 | 0.02 | 0.02 | 46 | 1017.7 |
| 20260506201639 | 60 | 10 | 9.0 | 20.0 | 0.00 | 0.02 | 0.02 | 48 | 1017.7 |
| 20260506201138 | 60 | 7 | 10.0 | 15.0 | 0.00 | 0.02 | 0.02 | 43 | 1017.7 |
| 20260506200637 | 60 | 18 | 9.0 | 14.0 | 0.00 | 0.02 | 0.02 | 48 | 1017.7 |
| 20260506200137 | 59 | 338 | 3.0 | 11.0 | 0.00 | 0.02 | 0.02 | 52 | 1017.8 |
| 20260506195635 | 59 | 24 | 2.0 | 15.0 | 0.00 | 0.02 | 0.02 | 44 | 1017.8 |
| 20260506195135 | 59 | 0 | 10.0 | 17.0 | 0.00 | 0.02 | 0.02 | 50 | 1017.9 |
| 20260506194635 | 59 | 13 | 10.0 | 17.0 | 0.00 | 0.02 | 0.02 | 43 | 1017.9 |
| 20260506194133 | 59 | 0 | 7.0 | 13.0 | 0.00 | 0.02 | 0.02 | 47 | 1017.9 |
| 20260506193633 | 59 | 337 | 7.0 | 13.0 | 0.00 | 0.02 | 0.02 | 47 | 1018.1 |
| 20260506193133 | 59 | 1 | 7.0 | 13.0 | 0.00 | 0.02 | 0.02 | 46 | 1018.1 |
| 20260506192632 | 59 | 44 | 6.0 | 14.0 | 0.00 | 0.02 | 0.02 | 47 | 1018.2 |
| 20260506192132 | 59 | 20 | 8.0 | 14.0 | 0.00 | 0.02 | 0.02 | 45 | 1018.3 |
| 20260506190629 | 59 | 0 | 8.0 | 12.0 | 0.00 | 0.02 | 0.02 | 50 | 1018.2 |
| 20260506184628 | 58 | 0 | 8.0 | 15.0 | 0.00 | 0.03 | 0.02 | 45 | 1018.3 |
| 20260506184125 | 58 | 0 | 8.0 | 15.0 | 0.00 | 0.04 | 0.02 | 45 | 1018.5 |
| 20260506183125 | 58 | 334 | 5.0 | 13.0 | 0.00 | 0.05 | 0.02 | 49 | 1018.4 |
| 20260506182624 | 58 | 4 | 6.0 | 16.0 | 0.00 | 0.06 | 0.02 | 53 | 1018.5 |
| 20260506181623 | 58 | 8 | 5.0 | 15.0 | 0.00 | 0.07 | 0.02 | 50 | 1018.7 |
| 20260506181121 | 57 | 0 | 9.0 | 15.0 | 0.00 | 0.07 | 0.02 | 43 | 1018.7 |
| 20260506180621 | 57 | 14 | 6.0 | 13.0 | 0.00 | 0.07 | 0.02 | 44 | 1018.7 |
| 20260506180121 | 57 | 329 | 8.0 | 14.0 | 0.00 | 0.07 | 0.02 | 49 | 1018.8 |
| 20260506175619 | 56 | 0 | 7.0 | 14.0 | 0.00 | 0.07 | 0.02 | 45 | 1018.7 |
| 20260506175119 | 56 | 0 | 9.0 | 13.0 | 0.00 | 0.08 | 0.02 | 45 | 1018.6 |
| 20260506174620 | 56 | 330 | 8.0 | 14.0 | 0.00 | 0.09 | 0.02 | 43 | 1018.7 |
| 20260506174117 | 57 | 1 | 9.0 | 14.0 | 0.00 | 0.10 | 0.02 | 46 | 1018.9 |
| 20260506173617 | 56 | 357 | 8.0 | 14.0 | 0.00 | 0.11 | 0.02 | 49 | 1018.8 |
| 20260506172614 | 56 | 302 | 6.0 | 16.0 | 0.00 | 0.12 | 0.02 | 44 | 1018.8 |
| 20260506171616 | 57 | 16 | 6.0 | 14.0 | 0.00 | 0.12 | 0.02 | 49 | 1019.0 |
| 20260506171113 | 56 | 7 | 9.0 | 14.0 | 0.00 | 0.12 | 0.02 | 52 | 1019.0 |
| 20260506170613 | 56 | 348 | 7.0 | 12.0 | 0.00 | 0.12 | 0.02 | 51 | 1019.0 |
| 20260506170113 | 56 | 1 | 5.0 | 11.0 | 0.00 | 0.12 | 0.02 | 54 | 1019.1 |
| 20260506165611 | 56 | 14 | 6.0 | 11.0 | 0.00 | 0.13 | 0.02 | 54 | 1019.1 |
| 20260506165111 | 56 | 0 | 5.0 | 12.0 | 0.00 | 0.13 | 0.02 | 54 | 1019.1 |
| 20260506164610 | 55 | 11 | 6.0 | 12.0 | 0.00 | 0.13 | 0.02 | 53 | 1019.0 |
| 20260506164109 | 55 | 0 | 8.0 | 11.0 | 0.00 | 0.13 | 0.02 | 53 | 1019.1 |
| 20260506163109 | 55 | 334 | 5.0 | 13.0 | 0.00 | 0.14 | 0.02 | 55 | 1018.9 |
| 20260506162607 | 55 | 336 | 7.0 | 12.0 | 0.00 | 0.18 | 0.02 | 52 | 1018.7 |
| 20260506162107 | 55 | 0 | 7.0 | 11.0 | 0.00 | 0.20 | 0.02 | 55 | 1018.9 |
| 20260506161608 | 55 | 0 | 5.0 | 10.0 | 0.00 | 0.21 | 0.02 | 56 | 1018.9 |
| 20260506160106 | 55 | 0 | 9.0 | 17.0 | 0.00 | 0.29 | 0.02 | 56 | 1018.7 |
| 20260506155603 | 55 | 0 | 10.0 | 17.0 | 0.00 | 0.30 | 0.02 | 55 | 1018.6 |
| 20260506155102 | 55 | 0 | 7.0 | 13.0 | 0.00 | 0.33 | 0.02 | 58 | 1018.6 |
| 20260506154602 | 55 | 353 | 9.0 | 13.0 | 0.00 | 0.35 | 0.02 | 52 | 1018.6 |
| 20260506154102 | 55 | 353 | 5.0 | 9.0 | 0.00 | 0.36 | 0.02 | 61 | 1018.6 |
| 20260506153601 | 55 | 0 | 4.0 | 10.0 | 0.00 | 0.36 | 0.02 | 56 | 1018.6 |
| 20260506153102 | 55 | 0 | 7.0 | 11.0 | 0.00 | 0.36 | 0.02 | 58 | 1018.6 |
| 20260506152603 | 55 | 336 | 4.0 | 13.0 | 0.00 | 0.36 | 0.02 | 55 | 1018.5 |
| 20260506151101 | 54 | 16 | 5.0 | 11.0 | 0.00 | 0.38 | 0.02 | 62 | 1018.3 |
| 20260506150602 | 54 | 316 | 5.0 | 12.0 | 0.00 | 0.38 | 0.02 | 62 | 1018.5 |
| 20260506145600 | 53 | 329 | 5.0 | 12.0 | 0.00 | 0.38 | 0.02 | 63 | 1018.2 |
| 20260506145101 | 53 | 293 | 6.0 | 12.0 | 0.00 | 0.38 | 0.02 | 63 | 1018.1 |
| 20260506144600 | 53 | 337 | 6.0 | 13.0 | 0.00 | 0.38 | 0.02 | 65 | 1018.1 |
| 20260506144100 | 53 | 347 | 7.0 | 13.0 | 0.00 | 0.38 | 0.02 | 65 | 1017.9 |
| 20260506143600 | 52 | 0 | 4.0 | 12.0 | 0.00 | 0.38 | 0.02 | 66 | 1018.1 |
| 20260506142600 | 53 | 333 | 5.0 | 14.0 | 0.00 | 0.39 | 0.02 | 64 | 1018.3 |
| 20260506142100 | 53 | 316 | 6.0 | 13.0 | 0.00 | 0.39 | 0.02 | 66 | 1018.3 |
| 20260506141559 | 53 | 353 | 6.0 | 12.0 | 0.00 | 0.39 | 0.02 | 67 | 1018.4 |
| 20260506141100 | 52 | 303 | 6.0 | 10.0 | 0.00 | 0.39 | 0.02 | 68 | 1018.5 |
| 20260506140559 | 52 | 350 | 7.0 | 10.0 | 0.00 | 0.39 | 0.02 | 68 | 1018.4 |
| 20260506140100 | 52 | 324 | 5.0 | 9.0 | 0.00 | 0.39 | 0.02 | 71 | 1018.3 |
| 20260506135600 | 51 | 357 | 5.0 | 9.0 | 0.00 | 0.39 | 0.02 | 72 | 1018.1 |
| 20260506135100 | 51 | 307 | 5.0 | 9.0 | 0.00 | 0.40 | 0.02 | 74 | 1018.2 |